Date String (YYYY-MM-DD hh:mm:ss) UTC,Instrument flags,Ambient pressure (hPa),Sample flow (lpm),Bypass flow (lpm),Sample temperature (°C),Ambient temperature (°C),ASC tube jacket temperature (°C),LED temperature (°C),Box temperature (°C),Sample RH (%),Span deviation,Mass concentration (μg/m³),Mass concentration (μg/m³),Mass concentration (μg/m³)
DateTimeUTC,F1_M11,P_M11,Q1_M11,Q2_M11,T1_M11,T2_M11,T3_M11,T4_M11,T5_M11,U1_M11,ZSPAN_M11,X2_M11,X0_M11,X1_M11
2022-06-30 12:00:00,,0827.9,4.98,0.00,29.7,28.8,00.0,38.5,31.7,20.4,0000.0,0002.11,0005.01,0001.61
2022-06-30 12:01:00,,0828.0,4.98,0.00,29.8,28.8,00.0,38.5,31.7,20.2,0000.0,0002.09,0004.95,0001.60
2022-06-30 12:02:00,,0828.0,5.00,0.00,29.8,28.8,00.0,38.5,31.7,20.1,0000.0,0002.09,0003.87,0001.59
2022-06-30 12:03:00,,0828.0,5.00,0.00,29.8,28.9,00.0,38.5,31.7,19.9,0000.0,0002.13,0004.27,0001.60
2022-06-30 12:04:00,,0827.9,5.00,0.00,29.8,28.9,00.0,38.5,31.8,21.4,0000.0,0002.15,0005.07,0001.60
2022-06-30 12:05:00,,0828.0,4.99,0.00,29.8,28.9,00.0,38.6,31.7,21.9,0000.0,0002.20,0005.13,0001.62
2022-06-30 12:06:00,,0828.0,5.01,0.00,29.9,29.0,00.0,38.6,31.8,22.9,0000.0,0002.20,0005.01,0001.64
2022-06-30 12:07:00,,0828.0,4.99,0.00,29.9,29.0,00.0,38.6,31.8,24.2,0000.0,0002.12,0004.70,0001.68
2022-06-30 12:08:00,,0828.1,5.00,0.00,29.9,28.8,00.0,38.6,31.8,24.1,0000.0,0002.10,0004.53,0001.70
2022-06-30 12:09:00,,0828.0,5.00,0.00,29.8,28.0,00.0,38.6,31.5,23.1,0000.0,0002.09,0004.27,0001.72
2022-06-30 12:10:00,,0828.0,5.00,0.00,29.8,27.6,00.0,38.5,31.4,23.2,0000.0,0002.11,0004.23,0001.74
2022-06-30 12:11:00,,0828.0,5.01,0.00,29.7,27.5,00.0,38.5,31.3,21.8,0000.0,0002.12,0004.27,0001.76
2022-06-30 12:12:00,,0828.0,5.00,0.00,29.6,27.5,00.0,38.5,31.3,22.5,0000.0,0002.16,0004.34,0001.78
2022-06-30 12:13:00,,0828.0,5.00,0.00,29.6,27.7,00.0,38.5,31.3,22.7,0000.0,0002.25,0004.52,0001.82
2022-06-30 12:14:00,,0828.0,5.01,0.00,29.6,27.8,00.0,38.5,31.3,23.1,0000.0,0002.34,0004.27,0001.86
2022-06-30 12:15:00,,0828.0,5.00,0.00,29.6,27.9,00.0,38.5,31.4,22.5,0000.0,0002.38,0003.60,0001.90
2022-06-30 12:16:00,,0828.1,5.00,0.00,29.6,28.0,00.0,38.4,31.4,22.5,0000.0,0002.36,0003.58,0001.91
2022-06-30 12:17:00,,0828.1,4.99,0.00,29.6,28.1,00.0,38.4,31.4,21.8,0000.0,0002.38,0003.63,0001.93
2022-06-30 12:18:00,,0828.0,5.00,0.00,29.6,28.2,00.0,38.4,31.4,21.6,0000.0,0002.41,0004.43,0001.94
2022-06-30 12:19:00,,0828.1,5.00,0.00,29.6,28.3,00.0,38.4,31.5,21.6,0000.0,0002.47,0005.09,0001.95
2022-06-30 12:20:00,,0828.1,5.00,0.00,29.6,28.4,00.0,38.4,31.5,21.7,0000.0,0002.54,0005.34,0001.97
2022-06-30 12:21:00,,0828.1,5.00,0.00,29.6,28.5,00.0,38.4,31.5,21.9,0000.0,0002.58,0005.81,0001.98
2022-06-30 12:22:00,,0828.2,5.00,0.00,29.7,28.5,00.0,38.4,31.5,21.7,0000.0,0002.58,0006.45,0001.99
2022-06-30 12:23:00,,0828.1,5.01,0.00,29.7,28.6,00.0,38.5,31.6,21.4,0000.0,0002.61,0006.58,0002.02
2022-06-30 12:24:00,,0828.3,5.00,0.00,29.7,28.6,00.0,38.5,31.6,22.0,0000.0,0002.61,0006.58,0002.02
2022-06-30 12:25:00,,0828.5,4.99,0.00,29.7,28.7,00.0,38.5,31.6,22.2,0000.0,0002.59,0006.52,0002.00
2022-06-30 12:26:00,,0828.1,5.00,0.00,29.7,28.7,00.0,38.5,31.7,21.5,0000.0,0002.51,0006.24,0001.99
2022-06-30 12:27:00,,0828.2,4.99,0.00,29.7,28.8,00.0,38.5,31.7,21.0,0000.0,0002.54,0006.27,0001.98
2022-06-30 12:28:00,,0828.1,5.01,0.00,29.8,28.8,00.0,38.5,31.7,21.1,0000.0,0002.50,0006.16,0001.97
2022-06-30 12:29:00,,0828.1,5.00,0.00,29.8,28.8,00.0,38.5,31.7,20.8,0000.0,0002.49,0005.71,0001.96
2022-06-30 12:30:00,,0828.1,5.00,0.00,29.8,28.8,00.0,38.6,31.7,20.7,0000.0,0002.45,0004.84,0001.94
2022-06-30 12:31:00,,0828.1,5.00,0.00,29.8,28.9,00.0,38.6,31.7,21.0,0000.0,0002.40,0004.95,0001.93
2022-06-30 12:32:00,,0828.1,4.98,0.00,29.8,28.9,00.0,38.6,31.7,20.8,0000.0,0002.37,0004.74,0001.93
2022-06-30 12:33:00,,0828.1,4.99,0.00,29.9,29.0,00.0,38.6,31.8,20.6,0000.0,0002.39,0004.12,0001.93
2022-06-30 12:34:00,,0828.1,5.01,0.00,29.9,29.0,00.0,38.6,31.8,20.3,0000.0,0002.41,0004.03,0001.92
2022-06-30 12:35:00,,0828.1,5.00,0.00,29.9,29.0,00.0,38.6,31.8,20.3,0000.0,0002.40,0004.05,0001.91
2022-06-30 12:36:00,,0828.1,5.00,0.00,29.9,29.0,00.0,38.7,31.8,20.3,0000.0,0002.35,0003.95,0001.90
2022-06-30 12:37:00,,0828.1,4.99,0.00,29.9,28.3,00.0,38.6,31.7,20.3,0000.0,0002.36,0004.07,0001.90
2022-06-30 12:38:00,,0828.1,4.99,0.00,29.8,27.8,00.0,38.6,31.5,20.0,0000.0,0002.31,0003.96,0001.90
2022-06-30 12:39:00,,0828.1,5.01,0.00,29.8,27.7,00.0,38.5,31.4,20.0,0000.0,0002.25,0003.84,0001.88
2022-06-30 12:40:00,,0828.1,5.01,0.00,29.7,27.7,00.0,38.5,31.4,20.0,0000.0,0002.22,0003.76,0001.86
2022-06-30 12:41:00,,0828.1,5.00,0.00,29.7,27.8,00.0,38.5,31.4,19.9,0000.0,0002.19,0003.71,0001.85
2022-06-30 12:42:00,,0828.1,4.98,0.00,29.7,27.9,00.0,38.5,31.4,19.8,0000.0,0002.19,0003.56,0001.83
2022-06-30 12:43:00,,0828.1,5.00,0.00,29.7,28.1,00.0,38.5,31.5,19.7,0000.0,0002.18,0003.32,0001.81
2022-06-30 12:44:00,,0828.3,5.00,0.00,29.7,28.2,00.0,38.5,31.5,19.9,0000.0,0002.13,0003.31,0001.77
2022-06-30 12:45:00,,0828.1,5.00,0.00,29.7,28.3,00.0,38.5,31.5,20.4,0000.0,0002.07,0003.21,0001.74
2022-06-30 12:46:00,,0828.1,5.00,0.00,29.7,28.4,00.0,38.5,31.6,21.1,0000.0,0002.01,0003.05,0001.72
2022-06-30 12:47:00,,0828.2,5.01,0.00,29.7,28.5,00.0,38.5,31.6,23.3,0000.0,0002.01,0003.13,0001.70
2022-06-30 12:48:00,,0828.1,5.00,0.00,29.7,28.6,00.0,38.5,31.6,22.9,0000.0,0001.98,0003.01,0001.68
2022-06-30 12:49:00,,0828.1,5.01,0.00,29.7,28.7,00.0,38.5,31.7,21.6,0000.0,0002.01,0003.12,0001.67
2022-06-30 12:50:00,,0828.1,4.99,0.00,29.8,28.8,00.0,38.5,31.7,20.9,0000.0,0002.02,0003.17,0001.67
2022-06-30 12:51:00,,0828.2,5.00,0.00,29.8,28.8,00.0,38.6,31.7,20.8,0000.0,0002.00,0003.13,0001.65
2022-06-30 12:52:00,,0828.1,5.00,0.00,29.8,28.9,00.0,38.6,31.8,20.8,0000.0,0001.98,0003.07,0001.64
2022-06-30 12:53:00,,0828.1,5.00,0.00,29.8,29.0,00.0,38.6,31.7,20.6,0000.0,0002.00,0003.35,0001.63
2022-06-30 12:54:00,,0828.1,4.99,0.00,29.9,29.0,00.0,38.6,31.8,20.5,0000.0,0001.95,0003.38,0001.62
2022-06-30 12:55:00,,0828.1,5.01,0.00,29.9,29.1,00.0,38.6,31.8,20.3,0000.0,0001.94,0003.20,0001.62
2022-06-30 12:56:00,,0828.2,5.01,0.00,29.9,29.1,00.0,38.7,31.9,20.2,0000.0,0001.97,0003.27,0001.63
2022-06-30 12:57:00,,0828.2,4.99,0.00,29.9,29.1,00.0,38.7,31.9,20.2,0000.0,0001.99,0003.33,0001.63
2022-06-30 12:58:00,,0828.2,5.01,0.00,29.9,28.7,00.0,38.6,31.8,21.3,0000.0,0002.01,0003.38,0001.64
2022-06-30 12:59:00,,0828.2,5.00,0.00,29.9,28.0,00.0,38.6,31.6,20.8,0000.0,0002.08,0003.63,0001.64
